"Pseudo-MPEC" for mor1426

Created 2022 Dec 26 0:22:27 UT using Find_Orb

Click here for an explanation of pseudo-MPECs

 
 Astrometry: 
     mor1426*KC2022 11 30[stgctsaH(A!(+7\YAstrometryPswMBMP4w]vYWpYDY-r6nt5uGJ43
     mor1426 KC2022 11 30@2]S0*i,Wt@3q$/*[%=Y9J+)r%GaTH[A`4]p?'WP!wLU'WjaNJTSJ43
     mor1426 KC2022 11 30/]K5*3i-ndm]H=VOt,*r$V',grmpvGI+redacted;*t@haduVNBmJ43
     mor1426 |C2022 12 01P`I%Z//,4@4@a`gW\hgclickL!b:jr.f?_Lhax(G2H5,/usAWaGy807
     mor1426 |C2022 12 013;'?uKk]81vdy;%QCMcEbI.^BOo]wHJS=,rlWdPouL4NA9@hereC807
     mor1426 |C2022 12 01c]mrAi!jMxmQ,dfor]$WoBadqgRF/F'fIkIp=explanationD`ig807

Station data:
(807) Cerro Tololo Observatory, La Serena  (S30.169133 W70.805900)  Chile.
   Observer R. Holmes. 0.61-m f/6.5 astrograph + CCD.
(J43) Oukaïmeden Observatory, Marrakech  (N31.206437 W7.866460)  Morocco.
   Observer C. Rinner. Measurers C. Rinner, M. Ory. 0.5-m f/3 reflector + CCD.

Orbital elements:  mor1426
   Perihelion 2022 Nov 14.22303 +/- 29.7 TT =  5:21:10 (JD 2459897.72303)
Epoch 2022 Dec  1.0 TT = JDT 2459914.5   Earth MOID: 0.3260   Ma: 0.0603
M   4.16382288 +/- 7                (J2000 ecliptic)             AutoNEOCP
n   0.24818688 +/- 0.118            Peri.  282.51641 +/- 46
a   2.50774572 +/- 0.796            Node   134.22217 +/- 20
e   0.4794154 +/- 0.137             Incl.    3.91919 +/- 1.3
P   3.97                   H 22.42  G  0.15   U 11.3  SR
q 1.30549364 +/- 0.102    Q 3.70999780 +/- 1.85
From 6 observations 2022 Nov. 30-Dec. 1 (28.6 hr); mean residual 0".47
Residuals in arcseconds: 
221130 J43  .09-  .75-    221130 J43  .15+  1.0+    221201 807  .59-  .34-    
221130 J43  .05-  .24-    221201 807  .05-  .36+    221201 807  .64+  .03-    

Ephemerides (geocentric):
Date (UTC) HH   RA             Dec           delta  r     elong  mag " sig PA
---- --------  ------------   ------------  ------ ------ -----  --- --------
2022 12 26 00  05 10 27.388   +13 30 04.55  .40640 1.3749 161.4 22.0 4229 114
2022 12 26 01  05 10 28.457   +13 30 36.23  .40658 1.3751 161.4 22.0 4245 114
2022 12 26 02  05 10 29.528   +13 31 07.91  .40677 1.3752 161.4 22.0 4260 114
2022 12 26 03  05 10 30.601   +13 31 39.59  .40695 1.3753 161.4 22.0 4276 114
2022 12 26 04  05 10 31.676   +13 32 11.28  .40714 1.3755 161.3 22.0 4291 114
2022 12 26 05  05 10 32.754   +13 32 42.97  .40732 1.3756 161.3 22.0 4307 114
2022 12 26 06  05 10 33.834   +13 33 14.66  .40751 1.3757 161.3 22.0 4322 114
2022 12 26 07  05 10 34.916   +13 33 46.35  .40770 1.3759 161.3 22.0 4338 114
2022 12 26 08  05 10 36.000   +13 34 18.05  .40788 1.3760 161.2 22.0 4354 114
2022 12 26 09  05 10 37.087   +13 34 49.74  .40807 1.3761 161.2 22.0 4369 114
2022 12 26 10  05 10 38.176   +13 35 21.44  .40826 1.3763 161.2 22.0 4385 114
2022 12 26 11  05 10 39.268   +13 35 53.14  .40844 1.3764 161.1 22.0 4401 114
2022 12 26 12  05 10 40.362   +13 36 24.84  .40863 1.3765 161.1 22.0 4417 114
2022 12 26 13  05 10 41.458   +13 36 56.55  .40882 1.3767 161.1 22.0 4433 114
2022 12 26 14  05 10 42.556   +13 37 28.25  .40901 1.3768 161.1 22.0 4449 114
2022 12 26 15  05 10 43.657   +13 37 59.96  .40919 1.3769 161.0 22.0 4464 114
2022 12 26 16  05 10 44.760   +13 38 31.66  .40938 1.3771 161.0 22.0 4480 114
2022 12 26 17  05 10 45.865   +13 39 03.37  .40957 1.3772 161.0 22.0 4496 114
2022 12 26 18  05 10 46.973   +13 39 35.08  .40976 1.3773 160.9 22.0 4512 114
2022 12 26 19  05 10 48.083   +13 40 06.79  .40995 1.3775 160.9 22.0 4528 114
2022 12 26 20  05 10 49.196   +13 40 38.50  .41014 1.3776 160.9 22.0 4544 114
2022 12 26 21  05 10 50.310   +13 41 10.21  .41033 1.3777 160.9 22.0 4561 114
2022 12 26 22  05 10 51.428   +13 41 41.93  .41052 1.3779 160.8 22.0 4577 114
2022 12 26 23  05 10 52.547   +13 42 13.64  .41071 1.3780 160.8 22.0 4593 114
2022 12 27 00  05 10 53.669   +13 42 45.36  .41090 1.3781 160.8 22.0 4609 114
2022 12 27 01  05 10 54.793   +13 43 17.07  .41109 1.3783 160.7 22.0 4625 114
2022 12 27 02  05 10 55.920   +13 43 48.79  .41128 1.3784 160.7 22.0 4641 114
2022 12 27 03  05 10 57.049   +13 44 20.50  .41147 1.3785 160.7 22.0 4658 114
2022 12 27 04  05 10 58.180   +13 44 52.22  .41166 1.3787 160.7 22.0 4674 114
2022 12 27 05  05 10 59.314   +13 45 23.94  .41185 1.3788 160.6 22.0 4690 114
2022 12 27 06  05 11 00.450   +13 45 55.66  .41205 1.3790 160.6 22.0 4707 114
2022 12 27 07  05 11 01.589   +13 46 27.38  .41224 1.3791 160.6 22.0 4723 114
2022 12 27 08  05 11 02.730   +13 46 59.10  .41243 1.3792 160.5 22.0 4740 114
2022 12 27 09  05 11 03.873   +13 47 30.82  .41262 1.3794 160.5 22.0 4756 114
2022 12 27 10  05 11 05.019   +13 48 02.54  .41282 1.3795 160.5 22.0 4773 114
2022 12 27 11  05 11 06.167   +13 48 34.26  .41301 1.3796 160.5 22.0 4789 114
2022 12 27 12  05 11 07.318   +13 49 05.98  .41320 1.3798 160.4 22.0 4806 114
2022 12 27 13  05 11 08.471   +13 49 37.70  .41340 1.3799 160.4 22.0 4822 114
2022 12 27 14  05 11 09.626   +13 50 09.42  .41359 1.3800 160.4 22.0 4839 114
2022 12 27 15  05 11 10.784   +13 50 41.14  .41378 1.3802 160.3 22.0 4856 114
2022 12 27 16  05 11 11.945   +13 51 12.86  .41398 1.3803 160.3 22.0 4872 114
2022 12 27 17  05 11 13.107   +13 51 44.58  .41417 1.3805 160.3 22.0 4889 114
2022 12 27 18  05 11 14.273   +13 52 16.30  .41437 1.3806 160.3 22.1 4906 114
2022 12 27 19  05 11 15.440   +13 52 48.02  .41456 1.3807 160.2 22.1 4923 114
2022 12 27 20  05 11 16.610   +13 53 19.73  .41476 1.3809 160.2 22.1 4940 114
2022 12 27 21  05 11 17.783   +13 53 51.45  .41495 1.3810 160.2 22.1 4956 114
2022 12 27 22  05 11 18.958   +13 54 23.17  .41515 1.3811 160.1 22.1 4973 114
2022 12 27 23  05 11 20.135   +13 54 54.89  .41535 1.3813 160.1 22.1 4990 114